Lake Granbury Weather Center

Moon Phase Calendar



Lake Granbury Water Level
Online Cameras

 


      

Current Conditions in Granbury
6/20/2021 5:00:01 PM

95°F
Feels Like 99
Clear
Humidity
40%
Pressure
29.74"
Wind
2 mph (SSE)
Dew Point
67°F
UV Index
5/10 (Moderate)
Visibility
6 mi

Hourly Forecast

Date & Time Sun, Jun 20
5:00 PM
Sun, Jun 20
6:00 PM
Sun, Jun 20
7:00 PM
Sun, Jun 20
8:00 PM
Sun, Jun 20
9:00 PM
Sun, Jun 20
10:00 PM
Sun, Jun 20
11:00 PM
Mon, Jun 21
12:00 AM
Mon, Jun 21
1:00 AM
Mon, Jun 21
2:00 AM
Mon, Jun 21
3:00 AM
Mon, Jun 21
4:00 AM
Mon, Jun 21
5:00 AM
Mon, Jun 21
6:00 AM
Mon, Jun 21
7:00 AM
Mon, Jun 21
8:00 AM
Mon, Jun 21
9:00 AM
Mon, Jun 21
10:00 AM
Mon, Jun 21
11:00 AM
Mon, Jun 21
12:00 PM
Mon, Jun 21
1:00 PM
Mon, Jun 21
2:00 PM
Mon, Jun 21
3:00 PM
Mon, Jun 21
4:00 PM
Mon, Jun 21
5:00 PM
Mon, Jun 21
6:00 PM
Mon, Jun 21
7:00 PM
Mon, Jun 21
8:00 PM
Mon, Jun 21
9:00 PM
Mon, Jun 21
10:00 PM
Mon, Jun 21
11:00 PM
Tue, Jun 22
12:00 AM
Tue, Jun 22
1:00 AM
Tue, Jun 22
2:00 AM
Tue, Jun 22
3:00 AM
Tue, Jun 22
4:00 AM
Tue, Jun 22
5:00 AM
Tue, Jun 22
6:00 AM
Tue, Jun 22
7:00 AM
Tue, Jun 22
8:00 AM
Tue, Jun 22
9:00 AM
Tue, Jun 22
10:00 AM
Tue, Jun 22
11:00 AM
Tue, Jun 22
12:00 PM
Tue, Jun 22
1:00 PM
Tue, Jun 22
2:00 PM
Tue, Jun 22
3:00 PM
Tue, Jun 22
4:00 PM
Condition
Clear

Clear

Clear

Clear

Clear

Clear

Clear

Clear

Clear

Clear

Clear

Clear

Clouds

Clouds

Clouds

Clouds

Clouds

Clouds

Rain

Rain

Clouds

Rain

Rain

Rain

Rain

Rain

Rain

Rain

Rain

Rain

Clouds

Clouds

Clouds

Clouds

Clouds

Clouds

Clouds

Clouds

Clouds

Clouds

Clouds

Clouds

Clouds

Clouds

Clouds

Clouds

Clouds

Clear
Temperature 95°F95°F93°F89°F86°F81°F80°F79°F78°F78°F77°F76°F76°F76°F78°F78°F79°F82°F83°F85°F88°F90°F89°F81°F67°F67°F66°F66°F65°F65°F65°F65°F64°F63°F62°F62°F61°F61°F61°F62°F65°F69°F72°F74°F77°F79°F81°F82°F
Feels Like 99°F99°F97°F94°F91°F86°F80°F79°F80°F79°F78°F78°F77°F78°F79°F80°F79°F87°F89°F92°F97°F98°F97°F86°F68°F67°F67°F66°F65°F65°F65°F65°F64°F63°F63°F62°F61°F61°F61°F62°F66°F69°F72°F74°F77°F79°F82°F84°F
Cloudiness 1%1%1%0%0%0%0%0%0%0%4%9%13%23%35%97%98%99%99%99%95%84%91%94%95%96%97%100%100%100%100%100%100%100%94%84%82%84%86%84%63%62%65%66%66%21%12%8%
Visibility 6 mi6 mi6 mi6 mi6 mi6 mi6 mi6 mi6 mi6 mi6 mi6 mi6 mi6 mi6 mi6 mi6 mi6 mi6 mi6 mi6 mi6 mi6 mi6 mi6 mi6 mi6 mi6 mi6 mi6 mi6 mi6 mi6 mi6 mi6 mi6 mi6 mi6 mi6 mi6 mi6 mi6 mi6 mi6 mi6 mi6 mi6 mi6 mi
Precipitation 0%0%0%0%0%0%0%0%0%0%0%0%0%0%0%0%3%17%25%29%33%37%65%77%97%100%100%100%100%100%80%80%80%0%0%0%0%0%0%0%0%0%0%0%0%0%0%0%
Humidity 40%41%44%52%62%74%80%82%84%86%87%89%90%88%84%82%81%75%74%70%63%59%58%73%90%89%91%90%91%91%89%89%90%91%92%92%92%91%90%89%85%81%76%72%67%62%58%56%
Dew Point 67°F67°F68°F69°F71°F72°F72°F73°F73°F73°F72°F72°F72°F72°F72°F72°F73°F73°F73°F74°F74°F73°F72°F71°F64°F63°F63°F62°F62°F62°F61°F61°F61°F60°F60°F59°F58°F58°F58°F58°F60°F62°F63°F64°F64°F64°F64°F64°F
Pressure 29.74"29.74"29.71"29.71"29.68"29.71"29.74"29.74"29.74"29.74"29.74"29.74"29.74"29.77"29.77"29.8"29.83"29.83"29.83"29.83"29.83"29.8"29.8"29.83"29.85"29.88"29.88"29.91"29.94"29.97"30"30"30"30"30"30"30"30"30.03"30.03"30.03"30.03"30.03"30"30"29.97"29.94"29.91"
Wind Speed 15.8 mph15.6 mph14.9 mph13.5 mph19.7 mph19.7 mph20 mph19.8 mph18.8 mph18.5 mph16.5 mph15.5 mph13.4 mph14 mph14.7 mph15.9 mph12.6 mph11 mph7.7 mph7.1 mph6 mph3.8 mph2.8 mph22.1 mph26.2 mph22.7 mph19.2 mph20 mph16 mph13.5 mph13.4 mph12.6 mph13.5 mph12.8 mph10.5 mph8.9 mph9.3 mph9 mph8.7 mph8.3 mph6.9 mph7.3 mph8.5 mph8.9 mph9.2 mph9 mph8.5 mph8.9 mph
Wind
Direction
175°
S
169°
S
168°
SSE
156°
SSE
156°
SSE
160°
SSE
163°
SSE
169°
S
171°
S
173°
S
176°
S
174°
S
184°
S
184°
S
182°
S
187°
S
186°
S
195°
SSW
192°
SSW
175°
S
167°
SSE
123°
ESE
74°
ENE
11°
N
21°
NNE
25°
NNE
24°
NNE
31°
NNE
29°
NNE
26°
NNE
34°
NE
24°
NNE
19°
NNE
24°
NNE
20°
NNE
14°
NNE
14°
NNE

N

N
21°
NNE
16°
NNE

N
14°
NNE
28°
NNE
43°
NE
62°
ENE
78°
ENE
96°
E

Daily Forecast

Date High Low Precip. Humidity
Today
Jun 20

Clear
95 °F
73 °F
0%
45%
Monday
Jun 21

Rain
90 °F
65 °F
100%
63%
Tuesday
Jun 22

Clouds
82 °F
61 °F
80%
67%
Wednesday
Jun 23

Clouds
89 °F
69 °F
0%
61%
Thursday
Jun 24

Clear
95 °F
75 °F
0%
55%
Friday
Jun 25

Clear
94 °F
75 °F
0%
48%
Saturday
Jun 26

Clouds
93 °F
74 °F
0%
50%
Sunday
Jun 27

Rain
90 °F
73 °F
97%
57%
Monday
Jun 28

Rain
90 °F
76 °F
97%
50%
Tuesday
Jun 29

Clouds
95 °F
80 °F
29%
46%
Wednesday
Jun 30

Clouds
98 °F
79 °F
0%
40%
Thursday
Jul 1

Clear
95 °F
77 °F
0%
47%
Friday
Jul 2

Rain
89 °F
74 °F
90%
57%
Saturday
Jul 3

Rain
75 °F
73 °F
100%
94%
Sunday
Jul 4

Rain
88 °F
73 °F
89%
70%
Monday
Jul 5

Clouds
91 °F
75 °F
0%
68%

Temperature 8-14 Day Outlook



Precipitation 8-14 Day Outlook




Quick Links
Lake Granbury News
Lake Granbury Photos
Lake Granbury Videos




About Us
Contact Us
Site Map
Search Site
Advertise With Us
   
Granbury.LakesOnline.com
THE LAKE GRANBURY WEBSITE

Copyright 2021, Lakes Online
Privacy    |    Legal